This demonstration page uses our WeatherBlox Daily Observations layout. Learn more.

36.19886, -115.1175

Hourly Observations for September 30, 2019

Temp ( °F °C ) Dew Point ( °F °C ) Humidity (%) Winds ( mph kmh ) Pressure ( in mb ) Visibility ( mi km ) Precip ( " mm )
12:53 am 00:53 Clear 63 17.2 24 -4.4 23 23 SSW 16 26 29.71 1006 10 16.09344 0 0
1:53 am 01:53 Clear 62 16.7 18 -7.8 18 18 SSE 20 31 29.74 1007 10 16.09344 0 0
2:53 am 02:53 Clear 61 16.1 16 -8.9 17 17 S 18 30 29.74 1007 10 16.09344 0 0
3:53 am 03:53 Clear 61 16.1 11 -11.7 14 14 SSW 16 26 29.74 1007 10 16.09344 0 0
4:53 am 04:53 Clear 59 15 9 -12.8 13 13 SSW 8 13 29.77 1008 10 16.09344 0 0
5:53 am 05:53 Clear 56 13.3 11 -11.7 17 17 W 8 13 29.8 1009 10 16.09344 0 0
6:53 am 06:53 Sunny 53 11.7 19 -7.2 26 26 N 7 11 29.83 1010 10 16.09344 0 0
7:53 am 07:53 Sunny 57 13.9 16 -8.9 20 20 NNW 6 9 29.85 1011 10 16.09344 0 0
8:53 am 08:53 Sunny 61 16.1 14 -10 16 16 NNW 6 9 29.85 1011 10 16.09344 0 0
9:53 am 09:53 Sunny 64 17.8 13 -10.6 13 13 ENE 5 7 29.85 1011 10 16.09344 0 0
10:53 am 10:53 Sunny 65 18.3 15 -9.4 14 14 VRB 3 6 29.85 1011 10 16.09344 0 0
11:53 am 11:53 Sunny 68 20 14 -10 12 12 VRB 5 7 29.83 1010 10 16.09344 0 0
12:53 pm 12:53 Sunny 70 21.1 10 -12.2 10 10 SE 9 15 29.8 1009 10 16.09344 0 0
1:53 pm 13:53 Sunny 74 23.3 10 -12.2 8 8 E 12 19 29.77 1008 10 16.09344 0 0
2:53 pm 14:53 Sunny 76 24.4 9 -12.8 7 7 SSE 14 22 29.74 1007 10 16.09344 0 0
3:53 pm 15:53 Sunny 78 25.6 7 -13.9 6 6 S 13 20 29.71 1006 10 16.09344 0 0
4:53 pm 16:53 Sunny 77 25 5 -15 6 6 SSW 18 30 29.71 1006 10 16.09344 0 0
5:53 pm 17:53 Sunny 75 23.9 6 -14.4 7 7 SSW 17 28 29.68 1005 10 16.09344 0 0
6:53 pm 18:53 Clear 72 22.2 10 -12.2 9 9 SW 16 26 29.71 1006 10 16.09344 0 0
7:53 pm 19:53 Clear 70 21.1 12 -11.1 10 10 SSE 9 15 29.71 1006 10 16.09344 0 0
8:53 pm 20:53 Clear 69 20.6 15 -9.4 12 12 WSW 6 9 29.71 1006 10 16.09344 0 0
9:53 pm 21:53 Clear 65 18.3 14 -10 14 14 NW 13 20 29.74 1007 10 16.09344 0 0
10:53 pm 22:53 Clear 65 18.3 11 -11.7 12 12 NW 8 13 29.74 1007 10 16.09344 0 0
11:53 pm 23:53 Clear 62 16.7 12 -11.1 14 14 Calm 29.74 1007 10 16.09344 0 0

Powered by AerisWeather